Regional Weather Roundup
Issued by NWS

Home | Current Version | Previous Version | Graphics & Text | Print | Product List | Glossary On
Versions: 1 2 3 4 5 6 7 8 9 10 11 12 13 14 15 16 17 18 19 20 21 22 23 24 25 26 27 28 29 30 31 32 33 34 35 36 37 38 39 40 41 42 43 44 45 46 47 48 49 50
000
ASUS43 KOAX 051210
RWRNE

WEATHER ROUNDUP FOR NEBRASKA
NATIONAL WEATHER SERVICE OMAHA NE
600 AM CST THU MAR 05 2015

NOTES: SATELLITE DATA IS BEING USED TO AUGMENT CLOUD COVER ABOVE
       12000 FEET.
       "FAIR" INDICATES FEW OR NO CLOUDS BELOW 12,000 FEET WITH NO
       SIGNIFICANT WEATHER AND/OR OBSTRUCTIONS TO VISIBILITY.

  * THESE STATIONS DO NOT REPORT WEATHER SUCH AS RAIN...SNOW OR FOG.

NEZ001>004-019>022-054>056-051300-
NEBRASKA PANHANDLE

CITY           SKY/WX    TMP DP  RH WIND       PRES   REMARKS
SCOTTSBLUFF    CLEAR      8   2  76 CALM      30.18F
6HR MIN TEMP:   5; 6HR MAX TEMP:  10;

ALLIANCE       PTCLDY    -2  -7  79 W7        30.16F WCI -15
6HR MIN TEMP:  -3; 6HR MAX TEMP:   4;

CHADRON        PTCLDY    -7 -13  75 CALM      30.19S
6HR MIN TEMP:  -8; 6HR MAX TEMP:  -1;

KIMBALL        CLEAR     14   7  74 SW12      30.13S WCI   0
SIDNEY         CLEAR      5   0  79 W9        30.18S WCI  -9
6HR MIN TEMP:   5; 6HR MAX TEMP:  11;

$$

NEZ057>060-069>072-079>082-051300-
SOUTHWEST NEBRASKA

CITY           SKY/WX    TMP DP  RH WIND       PRES   REMARKS
NORTH PLATTE   CLEAR      1  -4  79 E5        30.32R WCI  -9
6HR MIN TEMP:  -1; 6HR MAX TEMP:   7;

IMPERIAL         N/A      5   0  79 S3        30.27R
6HR MIN TEMP:   5; 6HR MAX TEMP:  16;

LEXINGTON      PTCLDY     3  -1  82 CALM      30.37R
MCCOOK         CLEAR      8   0  69 E6        30.34S WCI  -2
6HR MIN TEMP:   8; 6HR MAX TEMP:  17;

OGALLALA       CLEAR      3   0  88 CALM      30.26R
$$

NEZ005>010-023>029-035>040-094-051300-
NORTH CENTRAL NEBRASKA

CITY           SKY/WX    TMP DP  RH WIND       PRES   REMARKS
VALENTINE      PTCLDY     0  -6  76 CALM      30.27F
6HR MIN TEMP:  -3; 6HR MAX TEMP:   1;

AINSWORTH      PTCLDY     3  -2  79 S6        30.29S WCI  -8
BROKEN BOW     CLEAR     -3  -8  79 CALM      30.34R
6HR MIN TEMP:  -5; 6HR MAX TEMP:   1;

O`NEILL        PTCLDY     0  -5  81 SW3       30.36S
ORD            CLEAR     -1  -8  72 CALM      30.38S
6HR MIN TEMP:  -4; 6HR MAX TEMP:   1;

THEDFORD       PTCLDY     5  -1  77 S5        30.28S WCI  -4
$$

NEZ041-046>049-061>064-073>077-083>087-051300-
SOUTH CENTRAL NEBRASKA

CITY           SKY/WX    TMP DP  RH WIND       PRES   REMARKS
GRAND ISLAND   CLEAR      4  -3  73 S3        30.43S
6HR MIN TEMP:   3; 6HR MAX TEMP:   7;

AURORA         CLEAR      2  -4  76 CALM      30.43R
HASTINGS       CLEAR      5  -3  69 CALM      30.41R
6HR MIN TEMP:   1; 6HR MAX TEMP:   9;

HEBRON         CLEAR      4  -1  79 CALM      30.48R
HOLDREGE       PTCLDY     4  -3  74 SE3       30.38R
KEARNEY *      CLEAR      3  -2  78 CALM      30.40R
YORK           CLEAR      1  -2  85 CALM      30.45S
$$

NEZ011>018-030>034-042>045-051300-
NORTHEAST NEBRASKA

CITY           SKY/WX    TMP DP  RH WIND       PRES   REMARKS
NORFOLK        CLEAR     -3  -9  75 CALM      30.44R
6HR MIN TEMP:  -5; 6HR MAX TEMP:   3;

ALBION         PTCLDY    -1  -7  74 CALM      30.42S
BLAIR          CLEAR      2  -5  73 CALM      30.48S
COLUMBUS *     PTCLDY     0  -9  65 CALM      30.47R
FREMONT        CLEAR      1  -6  75 CALM      30.50S
TEKAMAH        CLEAR     -1  -7  75 SW3       30.53R
6HR MIN TEMP:  -1; 6HR MAX TEMP:   6;

WAYNE          PTCLDY    -8 -13  77 CALM      30.48S
$$

NEZ050>053-065>068-078-088>093-051300-
SOUTHEAST NEBRASKA

CITY           SKY/WX    TMP DP  RH WIND       PRES   REMARKS
LINCOLN        CLEAR      2  -4  76 N3        30.51R
6HR MIN TEMP:  -1; 6HR MAX TEMP:   9;

OMAHA EPPLEY   CLEAR      4  -3  73 CALM      30.53R
6HR MIN TEMP:   3; 6HR MAX TEMP:   8;

BEATRICE       CLEAR      4  -2  75 CALM      30.49R
FALLS CITY     CLEAR      5  -2  72 CALM      30.54R
6HR MIN TEMP:   5; 6HR MAX TEMP:  14;

NEBRASKA CITY  CLEAR      5  -5  61 CALM      30.51R
PLATTSMOUTH    CLEAR      4  -5  65 CALM      30.51R
$$

NEZ044-045-051>053-067-051300-
OMAHA AREA

CITY           SKY/WX    TMP DP  RH WIND       PRES   REMARKS
OMAHA EPPLEY   CLEAR      4  -3  73 CALM      30.53R
6HR MIN TEMP:   3; 6HR MAX TEMP:   8;

BLAIR          CLEAR      2  -5  73 CALM      30.48S
FREMONT        CLEAR      1  -6  75 CALM      30.50S
MILLARD        CLEAR      5  -2  72 CALM      30.52R
OFFUTT AFB     CLEAR      1  -3  83 CALM      30.52R
PLATTSMOUTH    CLEAR      4  -5  65 CALM      30.51R
WAHOO          FAIR      -1  -7  76 CALM      30.51R
$$



USA.gov is the U.S. government's official web portal to all federal, state and local government web resources and services.